This is the latest recevied weather packets stored in our database for station/object DL8FX-6. If no packets are shown the sender has not sent any weather packets the latest 10 day(s).
| Time | Temp. | Humidity | Pressure | Rain* | Wind** | Luminosity | Snow |
|---|---|---|---|---|---|---|---|
| 1778011845 | 12.78° C | 88% | 1006.1 hPa | 0 mm | - | - | - |
| 1778009428 | 13.33° C | 87% | 1006 hPa | 0 mm | - | - | - |
| 1778001074 | 17.78° C | 74% | 1005.7 hPa | 0 mm | - | - | - |
| 1777993847 | 20° C | 67% | 1006 hPa | 0 mm | - | - | - |
| 1777989017 | 18.33° C | 73% | 1006.4 hPa | 0 mm | - | - | - |
| 1777975846 | 17.78° C | 75% | 1007.4 hPa | 0 mm | - | - | - |
| 1777975242 | 17.22° C | 79% | 1007.4 hPa | 0 mm | - | - | - |
| 1777972825 | 16.67° C | 80% | 1007.5 hPa | 0 mm | - | - | - |
| 1777971617 | 16.67° C | 84% | 1007.5 hPa | 0 mm | - | - | - |
| 1777971073 | 16.67° C | 85% | 1007.6 hPa | 0 mm | - | - | - |
| 1777970469 | 16.11° C | 85% | 1007.5 hPa | 0 mm | - | - | - |
| 1777968657 | 15.56° C | 89% | 1007.7 hPa | 0 mm | - | - | - |
| 1777966242 | 15° C | 93% | 1007.5 hPa | 0 mm | - | - | - |
| 1777965638 | 15° C | 95% | 1007.6 hPa | 0 mm | - | - | - |
| 1777965034 | 15° C | 97% | 1007.5 hPa | 0 mm | - | - | - |
| 1777959056 | 13.33° C | 97% | 1007.9 hPa | 0.51 mm | - | - | - |
| 1777955431 | 12.78° C | 92% | 1008.1 hPa | 3.56 mm | - | - | - |
| 1777954243 | 13.33° C | 90% | 1008.6 hPa | 0.51 mm | - | - | - |
| 1777947034 | 13.89° C | 81% | 1008.9 hPa | 0 mm | - | - | - |
| 1777937432 | 13.33° C | 83% | 1009.4 hPa | 0 mm | - | - | - |
| 1777935620 | 12.78° C | 83% | 1009.7 hPa | 0 mm | - | - | - |
| 1777924267 | 16.11° C | 73% | 1010 hPa | 0 mm | - | - | - |
| 1777923079 | 16.67° C | 71% | 1009.8 hPa | 0 mm | - | - | - |
| 1777921850 | 17.78° C | 68% | 1009.9 hPa | 0 mm | - | - | - |
| 1777915267 | 22.78° C | 50% | 1009.4 hPa | 0 mm | - | - | - |
* Rain latest hour (hover to see other rain measurements)
** Current wind speed in m/s (hover to see current wind gust speed)